Location: Heathcote
(40.9845°N, 73.7746°W)
Time: 04:14:57
(UTC+00:00)

SL-4 R/B - Pass Details

Date: 29 October 2020
Orbit: 427 x 665 km, 51.6° (Epoch: 23 November)

Event Time Altitude Azimuth Distance (km) Brightness Sun altitude
Rises 22:14:42 0° 304° (NW) 2,420 6.0 -4.6°
Reaches altitude 10° 22:17:27 10° 328° (NNW) 1,578 4.6 -5.1°
Maximum altitude 22:19:39 16° 7° (N) 1,301 3.7 -5.5°
Drops below altitude 10° 22:21:57 10° 46° (NE) 1,638 3.9 -5.9°
Enters shadow 22:23:02 - 57° (ENE) 1,945 4.2 -6.1°
